Time,TemperatureF,DewpointF,PressureIn,WindDirection,WindDirectionDegrees,WindSpeedMPH,WindSpeedGustMPH,Humidity,HourlyPrecipIn,Conditions,Clouds,dailyrainin,SoftwareType,DateUTC
2013-01-19 00:01:00,31.8,22.5,30.20,SSW,194,5.0,15.0,68,0.00,,CLR,0.00,VWS V14.01,2013-01-19 05:01:00,
2013-01-19 00:03:00,31.8,22.5,30.20,SSW,194,7.0,11.0,68,0.00,,CLR,0.00,VWS V14.01,2013-01-19 05:03:00,
2013-01-19 00:07:00,32.0,22.3,30.19,SSW,196,9.0,11.0,67,0.00,,CLR,0.00,VWS V14.01,2013-01-19 05:07:00,
2013-01-19 00:12:00,32.2,22.5,30.19,South,175,6.0,15.0,67,0.00,,CLR,0.00,VWS V14.01,2013-01-19 05:12:00,
2013-01-19 00:17:00,32.1,22.4,30.19,South,190,7.0,15.0,67,0.00,,CLR,0.00,VWS V14.01,2013-01-19 05:17:00,
2013-01-19 00:22:00,32.2,22.5,30.18,South,187,2.0,15.0,67,0.00,,CLR,0.00,VWS V14.01,2013-01-19 05:22:00,
2013-01-19 00:27:00,32.2,22.5,30.18,SSW,207,7.0,15.0,67,0.00,,CLR,0.00,VWS V14.01,2013-01-19 05:27:00,
2013-01-19 00:32:00,32.5,22.4,30.19,SSW,212,5.0,11.0,66,0.00,,CLR,0.00,VWS V14.01,2013-01-19 05:32:00,
2013-01-19 00:37:00,32.5,22.4,30.18,South,177,8.0,12.0,66,0.00,,CLR,0.00,VWS V14.01,2013-01-19 05:37:00,
2013-01-19 00:42:00,32.8,22.7,30.18,WSW,245,5.0,15.0,66,0.00,,CLR,0.00,VWS V14.01,2013-01-19 05:42:00,
2013-01-19 00:48:00,32.7,22.6,30.18,SSW,206,7.0,15.0,66,0.00,,CLR,0.00,VWS V14.01,2013-01-19 05:48:00,
2013-01-19 00:53:00,32.8,22.7,30.18,SSW,212,4.0,15.0,66,0.00,,CLR,0.00,VWS V14.01,2013-01-19 05:53:00,
2013-01-19 00:58:00,32.7,22.6,30.18,SW,216,12.0,15.0,66,0.00,,CLR,0.00,VWS V14.01,2013-01-19 05:58:00,
2013-01-19 01:03:00,32.8,22.7,30.18,South,171,9.0,10.0,66,0.00,,CLR,0.00,VWS V14.01,2013-01-19 06:03:00,
2013-01-19 01:08:00,32.8,22.7,30.18,South,185,4.0,11.0,66,0.00,,CLR,0.00,VWS V14.01,2013-01-19 06:08:00,
2013-01-19 01:13:00,32.9,22.4,30.18,SSW,212,6.0,12.0,65,0.00,,CLR,0.00,VWS V14.01,2013-01-19 06:13:00,
2013-01-19 01:19:00,33.0,22.5,30.18,SSW,212,5.0,13.0,65,0.00,,CLR,0.00,VWS V14.01,2013-01-19 06:19:00,
2013-01-19 01:24:00,33.2,22.7,30.18,SSW,213,6.0,13.0,65,0.00,,CLR,0.00,VWS V14.01,2013-01-19 06:24:00,
2013-01-19 01:29:00,33.4,22.5,30.18,SSW,210,8.0,13.0,64,0.00,,CLR,0.00,VWS V14.01,2013-01-19 06:29:00,
2013-01-19 01:34:00,33.4,22.5,30.18,South,184,6.0,14.0,64,0.00,,CLR,0.00,VWS V14.01,2013-01-19 06:34:00,
2013-01-19 01:39:00,33.5,22.6,30.18,South,191,5.0,14.0,64,0.00,,CLR,0.00,VWS V14.01,2013-01-19 06:39:00,
2013-01-19 01:44:00,33.4,22.9,30.18,SSW,194,6.0,14.0,65,0.00,,CLR,0.00,VWS V14.01,2013-01-19 06:44:00,
2013-01-19 01:49:00,33.2,22.7,30.18,SSW,198,5.0,14.0,65,0.00,,CLR,0.00,VWS V14.01,2013-01-19 06:49:00,
2013-01-19 01:54:00,33.3,22.8,30.17,South,179,4.0,14.0,65,0.00,,CLR,0.00,VWS V14.01,2013-01-19 06:54:00,
2013-01-19 01:59:00,33.4,22.9,30.17,SSW,202,7.0,14.0,65,0.00,,CLR,0.00,VWS V14.01,2013-01-19 06:59:00,
2013-01-19 02:04:00,33.4,22.9,30.18,SSW,196,4.0,9.0,65,0.00,,CLR,0.00,VWS V14.01,2013-01-19 07:04:00,
2013-01-19 02:10:00,33.3,22.8,30.18,SSW,194,7.0,12.0,65,0.00,,CLR,0.00,VWS V14.01,2013-01-19 07:10:00,
2013-01-19 02:15:00,33.6,23.1,30.18,South,173,7.0,13.0,65,0.00,,CLR,0.00,VWS V14.01,2013-01-19 07:15:00,
2013-01-19 02:20:00,33.5,23.0,30.18,SW,219,4.0,13.0,65,0.00,,CLR,0.00,VWS V14.01,2013-01-19 07:20:00,
2013-01-19 02:25:00,33.5,23.0,30.18,SSW,196,4.0,14.0,65,0.00,,CLR,0.00,VWS V14.01,2013-01-19 07:25:00,
2013-01-19 02:30:00,33.5,23.0,30.18,SSW,207,6.0,14.0,65,0.00,,CLR,0.00,VWS V14.01,2013-01-19 07:30:00,
2013-01-19 02:35:00,33.4,22.9,30.18,South,178,4.0,7.0,65,0.00,,CLR,0.00,VWS V14.01,2013-01-19 07:35:00,
2013-01-19 02:40:00,33.7,22.8,30.18,SSW,203,7.0,11.0,64,0.00,,CLR,0.00,VWS V14.01,2013-01-19 07:40:00,
2013-01-19 02:45:00,33.7,22.8,30.18,SSW,205,5.0,11.0,64,0.00,,CLR,0.00,VWS V14.01,2013-01-19 07:45:00,
2013-01-19 02:50:00,33.6,22.7,30.18,South,186,4.0,11.0,64,0.00,,CLR,0.00,VWS V14.01,2013-01-19 07:50:00,
2013-01-19 02:55:00,33.4,22.5,30.18,SSW,195,4.0,11.0,64,0.00,,CLR,0.00,VWS V14.01,2013-01-19 07:55:00,
2013-01-19 03:01:00,33.6,22.7,30.18,SSW,196,6.0,11.0,64,0.00,,CLR,0.00,VWS V14.01,2013-01-19 08:01:00,
2013-01-19 03:06:00,33.6,22.7,30.17,South,188,4.0,8.0,64,0.00,,CLR,0.00,VWS V14.01,2013-01-19 08:06:00,
2013-01-19 03:11:00,33.5,23.0,30.17,SSW,212,3.0,9.0,65,0.00,,CLR,0.00,VWS V14.01,2013-01-19 08:11:00,
2013-01-19 03:16:00,33.5,23.0,30.17,SSW,194,5.0,9.0,65,0.00,,CLR,0.00,VWS V14.01,2013-01-19 08:16:00,
2013-01-19 03:22:00,33.3,22.8,30.17,SSW,193,7.0,9.0,65,0.00,,CLR,0.00,VWS V14.01,2013-01-19 08:22:00,
2013-01-19 03:27:00,33.5,23.0,30.17,South,187,1.0,9.0,65,0.00,,CLR,0.00,VWS V14.01,2013-01-19 08:27:00,
2013-01-19 03:32:00,33.4,22.9,30.17,SSW,208,2.0,6.0,65,0.00,,CLR,0.00,VWS V14.01,2013-01-19 08:32:00,
2013-01-19 03:37:00,33.3,22.8,30.17,South,187,7.0,7.0,65,0.00,,CLR,0.00,VWS V14.01,2013-01-19 08:37:00,
2013-01-19 03:42:00,33.4,22.9,30.17,South,189,4.0,7.0,65,0.00,,CLR,0.00,VWS V14.01,2013-01-19 08:42:00,
2013-01-19 03:47:00,33.3,22.8,30.17,SSW,209,3.0,8.0,65,0.00,,CLR,0.00,VWS V14.01,2013-01-19 08:47:00,
2013-01-19 03:52:00,33.2,22.7,30.16,South,185,4.0,8.0,65,0.00,,CLR,0.00,VWS V14.01,2013-01-19 08:52:00,
2013-01-19 03:57:00,33.3,22.8,30.16,SSW,200,3.0,8.0,65,0.00,,CLR,0.00,VWS V14.01,2013-01-19 08:57:00,
2013-01-19 04:02:00,33.3,22.8,30.16,SSW,200,3.0,6.0,65,0.00,,CLR,0.00,VWS V14.01,2013-01-19 09:02:00,
2013-01-19 04:07:00,33.5,23.0,30.16,SSW,202,7.0,7.0,65,0.00,,CLR,0.00,VWS V14.01,2013-01-19 09:07:00,
2013-01-19 04:13:00,33.5,22.6,30.15,SSW,195,4.0,7.0,64,0.00,,CLR,0.00,VWS V14.01,2013-01-19 09:13:00,
2013-01-19 04:18:00,33.9,23.0,30.16,South,188,6.0,11.0,64,0.00,,CLR,0.00,VWS V14.01,2013-01-19 09:18:00,
2013-01-19 04:23:00,34.3,23.0,30.16,SSW,194,4.0,11.0,63,0.00,,CLR,0.00,VWS V14.01,2013-01-19 09:23:00,
2013-01-19 04:28:00,34.8,23.1,30.15,SSW,205,8.0,11.0,62,0.00,,CLR,0.00,VWS V14.01,2013-01-19 09:28:00,
2013-01-19 04:33:00,35.5,23.0,30.15,SSW,201,5.0,8.0,60,0.00,,CLR,0.00,VWS V14.01,2013-01-19 09:33:00,
2013-01-19 04:38:00,35.8,22.9,30.15,SSW,203,6.0,13.0,59,0.00,,CLR,0.00,VWS V14.01,2013-01-19 09:38:00,
2013-01-19 04:43:00,36.1,22.8,30.15,SSW,205,4.0,13.0,58,0.00,,CLR,0.00,VWS V14.01,2013-01-19 09:43:00,
2013-01-19 04:48:00,36.3,23.0,30.14,SSW,206,7.0,13.0,58,0.00,,CLR,0.00,VWS V14.01,2013-01-19 09:48:00,
2013-01-19 04:53:00,36.4,23.0,30.14,WSW,239,5.0,13.0,58,0.00,,CLR,0.00,VWS V14.01,2013-01-19 09:53:00,
2013-01-19 04:59:00,36.4,23.0,30.14,SW,219,6.0,15.0,58,0.00,,CLR,0.00,VWS V14.01,2013-01-19 09:59:00,
2013-01-19 05:04:00,36.5,22.7,30.14,SW,221,5.0,11.0,57,0.00,,CLR,0.00,VWS V14.01,2013-01-19 10:04:00,
2013-01-19 05:09:00,36.3,23.0,30.14,SSW,203,8.0,11.0,58,0.00,,CLR,0.00,VWS V14.01,2013-01-19 10:09:00,
2013-01-19 05:14:00,36.5,22.7,30.14,SW,214,12.0,14.0,57,0.00,,CLR,0.00,VWS V14.01,2013-01-19 10:14:00,
2013-01-19 05:19:00,36.5,22.7,30.14,SSW,206,5.0,14.0,57,0.00,,CLR,0.00,VWS V14.01,2013-01-19 10:19:00,
2013-01-19 05:24:00,36.3,23.0,30.14,South,173,8.0,14.0,58,0.00,,CLR,0.00,VWS V14.01,2013-01-19 10:24:00,
2013-01-19 05:29:00,36.3,23.0,30.15,SSW,209,4.0,14.0,58,0.00,,CLR,0.00,VWS V14.01,2013-01-19 10:29:00,
2013-01-19 05:34:00,36.3,23.0,30.15,SSW,196,6.0,14.0,58,0.00,,CLR,0.00,VWS V14.01,2013-01-19 10:34:00,
2013-01-19 05:40:00,36.2,22.9,30.15,SSW,208,7.0,14.0,58,0.00,,CLR,0.00,VWS V14.01,2013-01-19 10:40:00,
2013-01-19 05:45:00,36.2,22.9,30.14,South,185,9.0,14.0,58,0.00,,CLR,0.00,VWS V14.01,2013-01-19 10:45:00,
2013-01-19 05:50:00,36.1,23.2,30.14,SSW,212,7.0,14.0,59,0.00,,CLR,0.00,VWS V14.01,2013-01-19 10:50:00,
2013-01-19 05:55:00,36.1,22.8,30.14,SW,223,6.0,14.0,58,0.00,,CLR,0.00,VWS V14.01,2013-01-19 10:55:00,
2013-01-19 06:00:00,36.0,23.1,30.14,SSW,209,6.0,14.0,59,0.00,,CLR,0.00,VWS V14.01,2013-01-19 11:00:00,
2013-01-19 06:05:00,35.8,22.9,30.14,SSW,192,7.0,9.0,59,0.00,,CLR,0.00,VWS V14.01,2013-01-19 11:05:00,
2013-01-19 06:11:00,35.9,23.0,30.14,South,185,7.0,11.0,59,0.00,,CLR,0.00,VWS V14.01,2013-01-19 11:11:00,
2013-01-19 07:48:00,35.9,24.5,30.13,SSW,210,10.0,15.0,63,0.00,,CLR,0.00,VWS V14.01,2013-01-19 12:48:00,
2013-01-19 07:49:00,35.9,24.5,30.14,SW,217,4.0,15.0,63,0.00,,CLR,0.00,VWS V14.01,2013-01-19 12:49:00,
2013-01-19 07:51:00,35.9,24.5,30.14,SW,215,7.0,15.0,63,0.00,,CLR,0.00,VWS V14.01,2013-01-19 12:51:00,
2013-01-19 07:56:00,35.7,24.7,30.14,SSW,207,7.0,15.0,64,0.00,,CLR,0.00,VWS V14.01,2013-01-19 12:56:00,
2013-01-19 08:01:00,35.8,24.8,30.14,SSW,205,8.0,15.0,64,0.00,,CLR,0.00,VWS V14.01,2013-01-19 13:01:00,
2013-01-19 08:07:00,35.8,24.5,30.14,SSW,207,7.0,12.0,63,0.00,,CLR,0.00,VWS V14.01,2013-01-19 13:07:00,
2013-01-19 08:12:00,36.0,24.6,30.14,SW,223,7.0,14.0,63,0.00,,CLR,0.00,VWS V14.01,2013-01-19 13:12:00,
2013-01-19 08:17:00,36.1,24.7,30.14,SW,229,5.0,17.0,63,0.00,,CLR,0.00,VWS V14.01,2013-01-19 13:17:00,
2013-01-19 08:22:00,36.3,24.9,30.14,SW,223,5.0,17.0,63,0.00,,CLR,0.00,VWS V14.01,2013-01-19 13:22:00,
2013-01-19 08:27:00,36.4,25.0,30.14,South,188,10.0,17.0,63,0.00,,CLR,0.00,VWS V14.01,2013-01-19 13:27:00,
2013-01-19 08:33:00,36.6,24.8,30.14,SSW,198,7.0,10.0,62,0.00,,CLR,0.00,VWS V14.01,2013-01-19 13:33:00,
2013-01-19 08:38:00,36.8,25.0,30.14,SSW,196,8.0,13.0,62,0.00,,CLR,0.00,VWS V14.01,2013-01-19 13:38:00,
2013-01-19 08:43:00,37.1,24.9,30.14,SSW,201,7.0,14.0,61,0.00,,CLR,0.00,VWS V14.01,2013-01-19 13:43:00,
2013-01-19 08:48:00,37.4,25.2,30.13,South,186,9.0,14.0,61,0.00,,CLR,0.00,VWS V14.01,2013-01-19 13:48:00,
2013-01-19 08:53:00,37.6,25.4,30.13,SSW,204,12.0,17.0,61,0.00,,CLR,0.00,VWS V14.01,2013-01-19 13:53:00,
2013-01-19 08:58:00,37.8,25.6,30.14,SSW,199,15.0,17.0,61,0.00,,CLR,0.00,VWS V14.01,2013-01-19 13:58:00,
2013-01-19 09:03:00,38.1,25.5,30.14,SSW,211,6.0,7.0,60,0.00,,CLR,0.00,VWS V14.01,2013-01-19 14:03:00,
2013-01-19 09:08:00,38.3,25.2,30.14,SSW,205,10.0,14.0,59,0.00,,CLR,0.00,VWS V14.01,2013-01-19 14:08:00,
2013-01-19 09:13:00,38.5,25.4,30.14,SSW,211,4.0,15.0,59,0.00,,CLR,0.00,VWS V14.01,2013-01-19 14:13:00,
2013-01-19 09:18:00,38.8,25.7,30.14,South,186,13.0,15.0,59,0.00,,CLR,0.00,VWS V14.01,2013-01-19 14:18:00,
2013-01-19 09:24:00,39.1,25.6,30.14,SW,235,6.0,15.0,58,0.00,,CLR,0.00,VWS V14.01,2013-01-19 14:24:00,
2013-01-19 09:29:00,39.4,25.9,30.14,SSW,204,6.0,15.0,58,0.00,,CLR,0.00,VWS V14.01,2013-01-19 14:29:00,
2013-01-19 09:34:00,39.7,25.3,30.14,SW,218,9.0,15.0,56,0.00,,CLR,0.00,VWS V14.01,2013-01-19 14:34:00,
2013-01-19 09:39:00,40.0,25.6,30.14,SW,229,5.0,16.0,56,0.00,,CLR,0.00,VWS V14.01,2013-01-19 14:39:00,
2013-01-19 09:44:00,40.4,26.0,30.14,WSW,240,6.0,16.0,56,0.00,,CLR,0.00,VWS V14.01,2013-01-19 14:44:00,
2013-01-19 09:49:00,40.7,25.8,30.14,SW,221,12.0,16.0,55,0.00,,CLR,0.00,VWS V14.01,2013-01-19 14:49:00,
2013-01-19 09:55:00,41.0,25.6,30.14,SW,229,11.0,16.0,54,0.00,,CLR,0.00,VWS V14.01,2013-01-19 14:55:00,
2013-01-19 10:00:00,41.2,25.8,30.14,SSW,205,10.0,16.0,54,0.00,,CLR,0.00,VWS V14.01,2013-01-19 15:00:00,
2013-01-19 10:05:00,41.5,26.1,30.13,SSW,210,8.0,14.0,54,0.00,,CLR,0.00,VWS V14.01,2013-01-19 15:05:00,
2013-01-19 10:10:00,41.8,26.4,30.13,SSW,198,6.0,19.0,54,0.00,,CLR,0.00,VWS V14.01,2013-01-19 15:10:00,
2013-01-19 10:15:00,42.0,26.1,30.13,SSW,206,7.0,19.0,53,0.00,,CLR,0.00,VWS V14.01,2013-01-19 15:15:00,
2013-01-19 10:20:00,42.1,25.8,30.13,SSW,213,11.0,25.0,52,0.00,,CLR,0.00,VWS V14.01,2013-01-19 15:20:00,
2013-01-19 10:25:00,42.7,26.3,30.13,SW,225,9.0,25.0,52,0.00,,CLR,0.00,VWS V14.01,2013-01-19 15:25:00,
2013-01-19 10:31:00,42.5,26.1,30.12,SW,227,8.0,25.0,52,0.00,,CLR,0.00,VWS V14.01,2013-01-19 15:31:00,
2013-01-19 10:36:00,42.8,26.4,30.12,SW,236,10.0,19.0,52,0.00,,CLR,0.00,VWS V14.01,2013-01-19 15:36:00,
2013-01-19 10:41:00,43.0,27.0,30.12,SW,236,7.0,19.0,53,0.00,,CLR,0.00,VWS V14.01,2013-01-19 15:41:00,
2013-01-19 10:46:00,43.4,26.5,30.12,SSW,207,10.0,19.0,51,0.00,,CLR,0.00,VWS V14.01,2013-01-19 15:46:00,
2013-01-19 10:51:00,43.3,26.4,30.11,SW,229,8.0,19.0,51,0.00,,CLR,0.00,VWS V14.01,2013-01-19 15:51:00,
2013-01-19 10:56:00,43.8,27.3,30.12,SW,230,6.0,19.0,52,0.00,,CLR,0.00,VWS V14.01,2013-01-19 15:56:00,
2013-01-19 11:01:00,44.0,27.5,30.12,SW,229,6.0,19.0,52,0.00,,CLR,0.00,VWS V14.01,2013-01-19 16:01:00,
2013-01-19 11:06:00,44.0,27.0,30.11,WSW,239,10.0,12.0,51,0.00,,CLR,0.00,VWS V14.01,2013-01-19 16:06:00,
2013-01-19 11:11:00,44.2,27.2,30.11,SW,216,7.0,12.0,51,0.00,,CLR,0.00,VWS V14.01,2013-01-19 16:11:00,
2013-01-19 11:16:00,44.7,28.2,30.11,SW,214,4.0,12.0,52,0.00,,CLR,0.00,VWS V14.01,2013-01-19 16:16:00,
2013-01-19 11:22:00,44.8,27.8,30.11,SW,223,9.0,13.0,51,0.00,,CLR,0.00,VWS V14.01,2013-01-19 16:22:00,
2013-01-19 11:27:00,44.9,27.9,30.10,SW,218,6.0,16.0,51,0.00,,CLR,0.00,VWS V14.01,2013-01-19 16:27:00,
2013-01-19 11:33:00,45.0,27.5,30.09,SSW,209,7.0,13.0,50,0.00,,CLR,0.00,VWS V14.01,2013-01-19 16:33:00,
2013-01-19 11:38:00,44.9,27.9,30.09,SSW,194,7.0,19.0,51,0.00,,CLR,0.00,VWS V14.01,2013-01-19 16:38:00,
2013-01-19 11:43:00,45.2,27.7,30.08,SW,215,10.0,19.0,50,0.00,,CLR,0.00,VWS V14.01,2013-01-19 16:43:00,
2013-01-19 11:48:00,45.5,28.0,30.08,SSW,202,9.0,20.0,50,0.00,,CLR,0.00,VWS V14.01,2013-01-19 16:48:00,
2013-01-19 11:53:00,45.5,28.0,30.08,SW,229,9.0,20.0,50,0.00,,CLR,0.00,VWS V14.01,2013-01-19 16:53:00,
2013-01-19 11:58:00,45.5,28.0,30.07,SW,222,7.0,20.0,50,0.00,,CLR,0.00,VWS V14.01,2013-01-19 16:58:00,
2013-01-19 12:03:00,45.8,28.7,30.07,SW,235,9.0,12.0,51,0.00,,CLR,0.00,VWS V14.01,2013-01-19 17:03:00,
2013-01-19 12:09:00,46.0,28.4,30.06,SSW,194,9.0,17.0,50,0.00,,CLR,0.00,VWS V14.01,2013-01-19 17:09:00,
2013-01-19 12:16:00,46.2,28.6,30.05,SW,222,6.0,18.0,50,0.00,,CLR,0.00,VWS V14.01,2013-01-19 17:16:00,
2013-01-19 12:22:00,46.4,28.3,30.05,SSW,193,8.0,18.0,49,0.00,,CLR,0.00,VWS V14.01,2013-01-19 17:22:00,
2013-01-19 12:27:00,46.8,29.6,30.05,SW,227,8.0,18.0,51,0.00,,CLR,0.00,VWS V14.01,2013-01-19 17:27:00,
2013-01-19 12:33:00,46.8,28.7,30.04,South,190,11.0,13.0,49,0.00,,CLR,0.00,VWS V14.01,2013-01-19 17:33:00,
2013-01-19 12:38:00,47.0,28.9,30.04,SW,226,8.0,18.0,49,0.00,,CLR,0.00,VWS V14.01,2013-01-19 17:38:00,
2013-01-19 12:43:00,47.0,28.3,30.03,SW,226,7.0,19.0,48,0.00,,CLR,0.00,VWS V14.01,2013-01-19 17:43:00,
2013-01-19 12:49:00,47.1,28.4,30.03,South,188,9.0,20.0,48,0.00,,CLR,0.00,VWS V14.01,2013-01-19 17:49:00,
2013-01-19 12:54:00,47.3,28.6,30.02,SSW,196,11.0,20.0,48,0.00,,CLR,0.00,VWS V14.01,2013-01-19 17:54:00,
2013-01-19 12:59:00,47.3,28.6,30.02,SSW,196,8.0,20.0,48,0.00,,CLR,0.00,VWS V14.01,2013-01-19 17:59:00,
2013-01-19 13:06:00,47.5,28.8,30.01,SW,229,8.0,24.0,48,0.00,,CLR,0.00,VWS V14.01,2013-01-19 18:06:00,
2013-01-19 13:12:00,47.8,29.1,30.01,WSW,238,9.0,24.0,48,0.00,,CLR,0.00,VWS V14.01,2013-01-19 18:12:00,
2013-01-19 13:17:00,47.9,29.2,30.00,SW,223,5.0,24.0,48,0.00,,CLR,0.00,VWS V14.01,2013-01-19 18:17:00,
2013-01-19 13:22:00,47.8,28.6,30.00,SW,236,12.0,24.0,47,0.00,,CLR,0.00,VWS V14.01,2013-01-19 18:22:00,
2013-01-19 13:28:00,48.2,29.5,30.00,SSW,202,7.0,24.0,48,0.00,,CLR,0.00,VWS V14.01,2013-01-19 18:28:00,
2013-01-19 13:33:00,48.4,29.1,30.00,SW,214,9.0,15.0,47,0.00,,CLR,0.00,VWS V14.01,2013-01-19 18:33:00,
2013-01-19 13:38:00,48.5,28.7,30.00,South,175,6.0,15.0,46,0.00,,CLR,0.00,VWS V14.01,2013-01-19 18:38:00,
2013-01-19 13:43:00,48.3,29.0,30.00,SW,217,12.0,18.0,47,0.00,,CLR,0.00,VWS V14.01,2013-01-19 18:43:00,
2013-01-19 13:48:00,48.4,28.6,29.99,South,177,12.0,18.0,46,0.00,,CLR,0.00,VWS V14.01,2013-01-19 18:48:00,
2013-01-19 13:54:00,48.6,29.3,29.99,SW,227,9.0,18.0,47,0.00,,CLR,0.00,VWS V14.01,2013-01-19 18:54:00,
2013-01-19 13:59:00,48.4,28.6,29.99,SSE,168,14.0,23.0,46,0.00,,CLR,0.00,VWS V14.01,2013-01-19 18:59:00,
2013-01-19 14:04:00,48.8,29.5,29.99,SW,228,10.0,12.0,47,0.00,,CLR,0.00,VWS V14.01,2013-01-19 19:04:00,
2013-01-19 14:09:00,48.6,28.8,29.99,SW,234,8.0,19.0,46,0.00,,CLR,0.00,VWS V14.01,2013-01-19 19:09:00,
2013-01-19 14:15:00,49.1,29.8,29.99,SSW,202,14.0,19.0,47,0.00,,CLR,0.00,VWS V14.01,2013-01-19 19:15:00,
2013-01-19 14:20:00,49.0,28.6,29.98,SW,220,13.0,19.0,45,0.00,,CLR,0.00,VWS V14.01,2013-01-19 19:20:00,
2013-01-19 14:27:00,48.8,28.4,29.98,SSW,213,9.0,23.0,45,0.00,,CLR,0.00,VWS V14.01,2013-01-19 19:27:00,
2013-01-19 14:34:00,48.8,29.0,29.97,South,189,17.0,19.0,46,0.00,,CLR,0.00,VWS V14.01,2013-01-19 19:34:00,
2013-01-19 14:41:00,49.0,29.1,29.97,WSW,238,9.0,20.0,46,0.00,,CLR,0.00,VWS V14.01,2013-01-19 19:41:00,
2013-01-19 14:46:00,49.2,29.3,29.96,SW,234,7.0,20.0,46,0.00,,CLR,0.00,VWS V14.01,2013-01-19 19:46:00,
2013-01-19 14:51:00,49.3,28.9,29.96,WSW,237,9.0,20.0,45,0.00,,CLR,0.00,VWS V14.01,2013-01-19 19:51:00,
2013-01-19 14:57:00,49.3,28.9,29.95,SSW,194,17.0,20.0,45,0.00,,CLR,0.00,VWS V14.01,2013-01-19 19:57:00,
2013-01-19 15:02:00,49.0,28.6,29.95,SSE,158,9.0,15.0,45,0.00,,CLR,0.00,VWS V14.01,2013-01-19 20:02:00,
2013-01-19 15:07:00,49.2,28.8,29.95,SSW,197,11.0,21.0,45,0.00,,CLR,0.00,VWS V14.01,2013-01-19 20:07:00,
2013-01-19 15:12:00,49.1,29.8,29.95,SSW,203,10.0,21.0,47,0.00,,CLR,0.00,VWS V14.01,2013-01-19 20:12:00,
2013-01-19 15:18:00,49.2,29.3,29.94,SSW,194,7.0,21.0,46,0.00,,CLR,0.00,VWS V14.01,2013-01-19 20:18:00,
2013-01-19 15:24:00,49.3,28.9,29.94,SSW,200,12.0,22.0,45,0.00,,CLR,0.00,VWS V14.01,2013-01-19 20:24:00,
2013-01-19 15:29:00,49.3,29.4,29.93,SSW,211,8.0,22.0,46,0.00,,CLR,0.00,VWS V14.01,2013-01-19 20:29:00,
2013-01-19 15:34:00,49.2,28.8,29.94,SSW,213,10.0,25.0,45,0.00,,CLR,0.00,VWS V14.01,2013-01-19 20:34:00,
2013-01-19 15:39:00,49.2,29.3,29.93,South,185,7.0,25.0,46,0.00,,CLR,0.00,VWS V14.01,2013-01-19 20:39:00,
2013-01-19 15:44:00,49.3,28.9,29.93,SSW,212,4.0,25.0,45,0.00,,CLR,0.00,VWS V14.01,2013-01-19 20:44:00,
2013-01-19 15:51:00,49.2,28.8,29.92,SW,214,12.0,25.0,45,0.00,,CLR,0.00,VWS V14.01,2013-01-19 20:51:00,
2013-01-19 15:57:00,49.1,28.7,29.92,South,172,10.0,25.0,45,0.00,,CLR,0.00,VWS V14.01,2013-01-19 20:57:00,
2013-01-19 16:02:00,49.1,28.7,29.92,SSW,196,11.0,12.0,45,0.00,,CLR,0.00,VWS V14.01,2013-01-19 21:02:00,
2013-01-19 16:07:00,49.0,28.6,29.91,SW,214,6.0,20.0,45,0.00,,CLR,0.00,VWS V14.01,2013-01-19 21:07:00,
2013-01-19 16:13:00,48.9,28.0,29.91,SSW,199,15.0,23.0,44,0.00,,CLR,0.00,VWS V14.01,2013-01-19 21:13:00,
2013-01-19 16:19:00,48.8,28.4,29.90,South,180,7.0,23.0,45,0.00,,CLR,0.00,VWS V14.01,2013-01-19 21:19:00,
2013-01-19 16:24:00,48.6,28.2,29.90,SSW,197,17.0,23.0,45,0.00,,CLR,0.00,VWS V14.01,2013-01-19 21:24:00,
2013-01-19 16:31:00,48.5,28.1,29.90,SSE,160,14.0,23.0,45,0.00,,CLR,0.00,VWS V14.01,2013-01-19 21:31:00,
2013-01-19 16:37:00,48.5,27.6,29.89,SSW,201,8.0,26.0,44,0.00,,CLR,0.00,VWS V14.01,2013-01-19 21:37:00,
2013-01-19 16:43:00,48.3,27.4,29.89,SSW,205,12.0,26.0,44,0.00,,CLR,0.00,VWS V14.01,2013-01-19 21:43:00,
2013-01-19 16:48:00,48.2,27.3,29.88,SSW,200,12.0,26.0,44,0.00,,CLR,0.00,VWS V14.01,2013-01-19 21:48:00,
2013-01-19 16:53:00,48.1,27.2,29.88,WSW,239,8.0,26.0,44,0.00,,CLR,0.00,VWS V14.01,2013-01-19 21:53:00,
2013-01-19 16:59:00,48.3,26.9,29.88,SW,219,9.0,26.0,43,0.00,,CLR,0.00,VWS V14.01,2013-01-19 21:59:00,
2013-01-19 17:05:00,48.1,27.2,29.88,SSW,209,12.0,21.0,44,0.00,,CLR,0.00,VWS V14.01,2013-01-19 22:05:00,
2013-01-19 17:10:00,47.9,26.5,29.87,SSW,211,7.0,21.0,43,0.00,,CLR,0.00,VWS V14.01,2013-01-19 22:10:00,
2013-01-19 17:15:00,47.8,26.4,29.87,SSW,204,15.0,21.0,43,0.00,,CLR,0.00,VWS V14.01,2013-01-19 22:15:00,
2013-01-19 17:20:00,47.9,27.0,29.87,SSW,200,9.0,21.0,44,0.00,,CLR,0.00,VWS V14.01,2013-01-19 22:20:00,
2013-01-19 17:25:00,47.6,26.2,29.87,South,190,11.0,21.0,43,0.00,,CLR,0.00,VWS V14.01,2013-01-19 22:25:00,
2013-01-19 17:31:00,47.8,26.4,29.86,WSW,238,6.0,8.0,43,0.00,,CLR,0.00,VWS V14.01,2013-01-19 22:31:00,
2013-01-19 17:38:00,47.5,26.7,29.86,SSW,195,3.0,17.0,44,0.00,,CLR,0.00,VWS V14.01,2013-01-19 22:38:00,
2013-01-19 17:44:00,47.6,26.2,29.86,SSW,205,7.0,19.0,43,0.00,,CLR,0.00,VWS V14.01,2013-01-19 22:44:00,
2013-01-19 17:49:00,47.8,26.4,29.85,South,173,6.0,19.0,43,0.00,,CLR,0.00,VWS V14.01,2013-01-19 22:49:00,
2013-01-19 17:55:00,47.6,26.2,29.85,SW,222,11.0,19.0,43,0.00,,CLR,0.00,VWS V14.01,2013-01-19 22:55:00,
2013-01-19 18:01:00,47.4,26.0,29.85,SSW,196,9.0,20.0,43,0.00,,CLR,0.00,VWS V14.01,2013-01-19 23:01:00,
2013-01-19 18:06:00,47.2,27.0,29.85,WSW,238,5.0,13.0,45,0.00,,CLR,0.00,VWS V14.01,2013-01-19 23:06:00,
2013-01-19 18:11:00,46.8,26.6,29.85,South,184,9.0,13.0,45,0.00,,CLR,0.00,VWS V14.01,2013-01-19 23:11:00,
2013-01-19 18:16:00,46.8,27.1,29.86,SW,229,5.0,16.0,46,0.00,,CLR,0.00,VWS V14.01,2013-01-19 23:16:00,
2013-01-19 18:21:00,46.7,27.0,29.86,SW,228,5.0,16.0,46,0.00,,CLR,0.00,VWS V14.01,2013-01-19 23:21:00,
2013-01-19 18:27:00,46.9,26.7,29.86,SSW,211,7.0,16.0,45,0.00,,CLR,0.00,VWS V14.01,2013-01-19 23:27:00,
2013-01-19 18:32:00,47.3,27.0,29.87,SW,236,7.0,8.0,45,0.00,,CLR,0.00,VWS V14.01,2013-01-19 23:32:00,
2013-01-19 18:38:00,47.1,26.9,29.87,SW,236,6.0,10.0,45,0.00,,CLR,0.00,VWS V14.01,2013-01-19 23:38:00,
2013-01-19 18:43:00,47.1,26.9,29.87,WSW,241,7.0,10.0,45,0.00,,CLR,0.00,VWS V14.01,2013-01-19 23:43:00,
2013-01-19 18:48:00,47.3,27.0,29.87,SW,221,6.0,12.0,45,0.00,,CLR,0.00,VWS V14.01,2013-01-19 23:48:00,
2013-01-19 18:53:00,47.4,27.1,29.87,SW,219,8.0,12.0,45,0.00,,CLR,0.00,VWS V14.01,2013-01-19 23:53:00,
2013-01-19 18:59:00,47.2,27.0,29.87,SSW,210,5.0,12.0,45,0.00,,CLR,0.00,VWS V14.01,2013-01-19 23:59:00,
2013-01-19 19:04:00,47.1,27.4,29.87,South,186,9.0,10.0,46,0.00,,CLR,0.00,VWS V14.01,2013-01-20 00:04:00,
2013-01-19 19:09:00,47.1,26.9,29.88,SSW,213,4.0,12.0,45,0.00,,CLR,0.00,VWS V14.01,2013-01-20 00:09:00,
2013-01-19 19:14:00,47.1,27.4,29.87,SSW,207,7.0,12.0,46,0.00,,CLR,0.00,VWS V14.01,2013-01-20 00:14:00,
2013-01-19 19:20:00,47.1,27.4,29.87,SSW,212,7.0,14.0,46,0.00,,CLR,0.00,VWS V14.01,2013-01-20 00:20:00,
2013-01-19 19:26:00,47.2,27.5,29.87,SW,223,5.0,17.0,46,0.00,,CLR,0.00,VWS V14.01,2013-01-20 00:26:00,
2013-01-19 19:31:00,47.2,28.0,29.87,South,190,11.0,17.0,47,0.00,,CLR,0.00,VWS V14.01,2013-01-20 00:31:00,
2013-01-19 19:37:00,47.2,27.5,29.87,WSW,237,9.0,16.0,46,0.00,,CLR,0.00,VWS V14.01,2013-01-20 00:37:00,
2013-01-19 19:42:00,47.2,28.0,29.87,SW,228,8.0,17.0,47,0.00,,CLR,0.00,VWS V14.01,2013-01-20 00:42:00,
2013-01-19 19:48:00,47.1,27.9,29.86,SW,232,5.0,17.0,47,0.00,,CLR,0.00,VWS V14.01,2013-01-20 00:48:00,
2013-01-19 19:54:00,47.2,27.5,29.87,SSW,212,6.0,17.0,46,0.00,,CLR,0.00,VWS V14.01,2013-01-20 00:54:00,
2013-01-19 19:59:00,47.2,27.5,29.87,SW,235,9.0,17.0,46,0.00,,CLR,0.00,VWS V14.01,2013-01-20 00:59:00,
2013-01-19 20:04:00,47.3,28.1,29.86,SSW,192,17.0,18.0,47,0.00,,CLR,0.00,VWS V14.01,2013-01-20 01:04:00,
2013-01-19 20:09:00,47.0,27.8,29.85,SW,235,4.0,18.0,47,0.00,,CLR,0.00,VWS V14.01,2013-01-20 01:09:00,
2013-01-19 20:16:00,47.0,27.8,29.85,SW,236,9.0,20.0,47,0.00,,CLR,0.00,VWS V14.01,2013-01-20 01:16:00,
2013-01-19 20:21:00,46.9,27.7,29.85,SW,233,11.0,20.0,47,0.00,,CLR,0.00,VWS V14.01,2013-01-20 01:21:00,
2013-01-19 20:26:00,46.9,27.7,29.85,WSW,243,8.0,20.0,47,0.00,,CLR,0.00,VWS V14.01,2013-01-20 01:26:00,
2013-01-19 20:33:00,46.5,27.9,29.85,SSW,209,7.0,12.0,48,0.00,,CLR,0.00,VWS V14.01,2013-01-20 01:33:00,
2013-01-19 20:38:00,46.5,27.4,29.84,WSW,238,10.0,15.0,47,0.00,,CLR,0.00,VWS V14.01,2013-01-20 01:38:00,
2013-01-19 20:43:00,46.3,27.7,29.84,SSW,211,7.0,15.0,48,0.00,,CLR,0.00,VWS V14.01,2013-01-20 01:43:00,
2013-01-19 20:48:00,46.2,27.6,29.84,SSW,210,8.0,18.0,48,0.00,,CLR,0.00,VWS V14.01,2013-01-20 01:48:00,
2013-01-19 20:53:00,46.0,27.9,29.84,SW,231,12.0,18.0,49,0.00,,CLR,0.00,VWS V14.01,2013-01-20 01:53:00,
2013-01-19 20:58:00,46.0,27.9,29.84,SW,229,5.0,18.0,49,0.00,,CLR,0.00,VWS V14.01,2013-01-20 01:58:00,
2013-01-19 21:04:00,45.8,28.2,29.83,SSW,206,6.0,11.0,50,0.00,,CLR,0.00,VWS V14.01,2013-01-20 02:04:00,
2013-01-19 21:09:00,46.0,27.9,29.83,SSW,212,7.0,14.0,49,0.00,,CLR,0.00,VWS V14.01,2013-01-20 02:09:00,
2013-01-19 21:15:00,45.7,28.1,29.83,SW,227,10.0,14.0,50,0.00,,CLR,0.00,VWS V14.01,2013-01-20 02:15:00,
2013-01-19 21:21:00,45.9,27.8,29.84,SW,221,10.0,15.0,49,0.00,,CLR,0.00,VWS V14.01,2013-01-20 02:21:00,
2013-01-19 21:26:00,45.7,28.1,29.83,SW,234,9.0,15.0,50,0.00,,CLR,0.00,VWS V14.01,2013-01-20 02:26:00,
2013-01-19 21:31:00,45.8,28.2,29.83,SSW,206,7.0,15.0,50,0.00,,CLR,0.00,VWS V14.01,2013-01-20 02:31:00,
2013-01-19 21:37:00,45.5,28.4,29.83,WSW,240,17.0,22.0,51,0.00,,CLR,0.00,VWS V14.01,2013-01-20 02:37:00,
2013-01-19 21:42:00,45.5,28.0,29.82,SW,227,9.0,22.0,50,0.00,,CLR,0.00,VWS V14.01,2013-01-20 02:42:00,
2013-01-19 21:47:00,45.6,28.0,29.82,SW,220,7.0,22.0,50,0.00,,CLR,0.00,VWS V14.01,2013-01-20 02:47:00,
2013-01-19 21:53:00,45.5,28.0,29.81,South,181,5.0,22.0,50,0.00,,CLR,0.00,VWS V14.01,2013-01-20 02:53:00,
2013-01-19 21:58:00,45.4,28.4,29.81,SSW,196,8.0,22.0,51,0.00,,CLR,0.00,VWS V14.01,2013-01-20 02:58:00,
2013-01-19 22:03:00,45.6,28.5,29.81,SSW,212,6.0,11.0,51,0.00,,CLR,0.00,VWS V14.01,2013-01-20 03:03:00,
2013-01-19 22:08:00,45.5,28.0,29.81,WSW,246,13.0,15.0,50,0.00,,CLR,0.00,VWS V14.01,2013-01-20 03:08:00,
2013-01-19 22:14:00,45.4,28.4,29.81,SSW,195,4.0,16.0,51,0.00,,CLR,0.00,VWS V14.01,2013-01-20 03:14:00,
2013-01-19 22:19:00,45.3,28.2,29.80,WSW,251,9.0,16.0,51,0.00,,CLR,0.00,VWS V14.01,2013-01-20 03:19:00,
2013-01-19 22:24:00,45.4,28.4,29.81,SW,236,9.0,19.0,51,0.00,,CLR,0.00,VWS V14.01,2013-01-20 03:24:00,
2013-01-19 22:29:00,45.1,28.5,29.80,WSW,247,10.0,19.0,52,0.00,,CLR,0.00,VWS V14.01,2013-01-20 03:29:00,
2013-01-19 22:35:00,45.2,28.6,29.80,SW,217,7.0,15.0,52,0.00,,CLR,0.00,VWS V14.01,2013-01-20 03:35:00,
2013-01-19 22:40:00,45.0,28.5,29.80,SSW,197,7.0,15.0,52,0.00,,CLR,0.00,VWS V14.01,2013-01-20 03:40:00,
2013-01-19 22:45:00,44.8,28.7,29.80,WSW,246,10.0,15.0,53,0.00,,CLR,0.00,VWS V14.01,2013-01-20 03:45:00,
2013-01-19 22:51:00,44.9,28.8,29.80,SW,222,11.0,15.0,53,0.00,,CLR,0.00,VWS V14.01,2013-01-20 03:51:00,
2013-01-19 22:57:00,44.8,28.7,29.79,SSW,209,7.0,15.0,53,0.00,,CLR,0.00,VWS V14.01,2013-01-20 03:57:00,
2013-01-19 23:03:00,44.8,28.7,29.79,SW,217,11.0,16.0,53,0.00,,CLR,0.00,VWS V14.01,2013-01-20 04:03:00,
2013-01-19 23:08:00,45.0,28.9,29.79,SW,218,9.0,16.0,53,0.00,,CLR,0.00,VWS V14.01,2013-01-20 04:08:00,
2013-01-19 23:13:00,45.1,29.0,29.79,South,182,10.0,18.0,53,0.00,,CLR,0.00,VWS V14.01,2013-01-20 04:13:00,
2013-01-19 23:19:00,45.3,29.2,29.78,South,183,15.0,22.0,53,0.00,,CLR,0.00,VWS V14.01,2013-01-20 04:19:00,
2013-01-19 23:24:00,45.0,29.4,29.78,SSW,207,8.0,22.0,54,0.00,,CLR,0.00,VWS V14.01,2013-01-20 04:24:00,
2013-01-19 23:29:00,45.1,29.0,29.78,SW,215,8.0,22.0,53,0.00,,CLR,0.00,VWS V14.01,2013-01-20 04:29:00,
2013-01-19 23:35:00,45.2,29.6,29.77,SW,235,9.0,14.0,54,0.00,,CLR,0.00,VWS V14.01,2013-01-20 04:35:00,
2013-01-19 23:40:00,45.2,29.6,29.77,SSW,205,7.0,20.0,54,0.00,,CLR,0.00,VWS V14.01,2013-01-20 04:40:00,
2013-01-19 23:46:00,45.2,29.6,29.77,South,189,11.0,20.0,54,0.00,,CLR,0.00,VWS V14.01,2013-01-20 04:46:00,
2013-01-19 23:51:00,45.1,29.9,29.77,WSW,255,14.0,23.0,55,0.00,,CLR,0.00,VWS V14.01,2013-01-20 04:51:00,
2013-01-19 23:56:00,45.1,29.9,29.77,WSW,253,9.0,23.0,55,0.00,,CLR,0.00,VWS V14.01,2013-01-20 04:56:00,